Temperature
21 21 22 22 22 21 20 20 20 20 19 20 19 18 19 19 19 19 20 20 20 21 20 20 20 20 20 19 19 19 19 18 18 18 18 17 17 17 17 17 17 16 16 16
21 22 22 22 22 21 21 20 20 20 20 19 19 19 18 18 18 19 19 20 20 20 20 20 20 20 19 19 19 18 18 18 18 18 18 17 17 17 17 17 16 16 16 16
20 20 22 21 21 21 20 20 19 19 19 18 18 18 18 18 18 19 19 19 19 19 20 20 20 19 19 19 19 18 18 18 18 17 17 17 17 16 16 16 16 16 16 15
17 20 21 20 20 20 20 19 19 19 18 18 18 19 19 19 19 19 19 19 19 19 19 19 19 19 19 19 18 18 18 17 17 17 17 17 16 16 16 16 16 15 15 15
16 18 19 20 20 20 20 19 19 18 18 18 18 18 19 19 19 19 19 19 19 19 19 19 19 18 18 18 18 18 17 17 17 16 16 16 16 16 16 15 15 15 15 14
16 19 19 20 20 20 19 19 18 18 17 17 17 17 17 19 19 19 19 19 19 19 19 18 18 18 18 17 17 17 17 16 16 16 16 16 16 16 15 15 15 15 14 14
16 17 18 18 19 20 19 19 19 18 18 17 17 17 18 18 18 18 18 18 18 18 18 18 18 18 17 17 17 17 16 16 16 16 16 16 15 15 15 14 14 14 14 14
15 17 18 18 18 18 17 18 19 19 18 18 18 18 18 18 18 18 18 18 18 18 18 17 18 17 17 17 16 16 16 16 15 15 15 15 15 14 14 14 14 14 13 13
15 16 16 17 18 18 19 19 19 19 18 18 18 18 18 18 18 18 18 18 17 17 17 17 17 17 16 16 16 15 15 15 15 15 15 14 14 14 14 13 13 13 13 13
14 15 16 17 18 18 19 19 19 19 18 18 18 18 17 17 17 17 17 17 17 17 16 16 16 16 16 16 15 15 15 15 14 14 14 14 13 13 13 13 13 13 13 12
14 14 16 17 18 18 18 18 18 18 18 18 18 17 17 17 17 17 16 16 16 16 16 16 16 16 15 15 15 15 14 14 14 14 13 13 13 13 13 12 12 12 12 12
14 15 15 17 18 18 18 18 18 18 17 17 17 17 17 17 17 16 16 16 16 16 16 15 15 15 15 15 14 14 14 14 14 13 13 13 12 12 12 12 12 12 12 12
17 17 17 17 17 17 18 18 18 17 17 17 17 17 16 16 16 16 16 16 15 15 15 15 15 15 14 14 14 14 13 13 13 13 13 12 12 12 12 12 12 12 11 11
17 17 16 17 17 17 17 17 17 17 17 17 16 16 16 16 16 15 15 15 15 15 15 14 14 14 14 14 13 13 13 13 13 12 12 12 12 12 11 11 11 11 11 11
17 17 17 17 17 17 17 16 16 16 16 16 16 16 15 15 15 15 15 15 14 14 14 14 14 14 13 13 13 13 12 12 12 12 12 11 11 11 11 11 11 11 11 11
16 16 16 16 16 16 16 16 16 16 16 16 15 15 15 15 15 14 14 14 14 14 14 14 13 13 13 13 12 12 12 12 12 11 11 11 11 11 11 11 11 11 10 10
15 15 15 15 15 16 16 15 15 15 15 15 15 15 15 14 14 14 14 14 14 14 13 13 13 13 13 12 12 12 12 11 11 11 11 11 10 10 10 10 10 10 10 10
15 15 15 15 15 15 15 15 15 15 15 15 15 14 14 14 14 14 13 13 13 13 13 13 13 12 12 12 12 11 11 11 11 11 10 10 10 10 10 10 10 10 10 10
15 15 15 14 14 14 14 15 15 14 14 14 14 14 14 14 13 13 13 13 13 13 12 12 12 12 12 12 11 11 11 11 10 10 10 10 10 10 10 10 10 9 9 9
14 14 14 14 14 14 14 14 14 14 14 14 14 13 13 13 13 13 12 12 12 12 12 12 12 12 11 11 11 11 11 10 10 10 10 10 10 10 9 9 9 9 9 9
14 14 14 14 13 13 13 14 14 14 13 13 13 13 13 13 12 12 12 12 12 12 12 11 11 11 11 11 11 11 10 10 10 10 10 9 9 9 9 9 9 9 9 8
13 13 13 13 13 13 13 13 13 13 13 13 13 13 13 12 12 12 12 11 11 11 11 11 11 11 11 11 11 10 10 10 10 10 9 9 9 9 9 9 9 8 8 8
13 13 13 13 13 13 13 13 13 13 13 13 13 12 12 12 12 12 11 11 11 11 11 11 11 10 10 10 10 10 10 10 10 9 9 9 9 9 9 9 8 8 8 8
13 13 13 12 12 12 12 12 12 12 12 12 12 12 12 12 12 11 11 11 11 11 10 10 10 10 10 10 10 10 10 10 9 9 9 9 9 9 8 8 8 8 8 8
12 12 12 12 12 12 12 12 12 12 12 12 12 12 11 11 11 11 11 11 10 10 10 10 10 10 10 10 10 10 9 9 9 9 9 9 8 8 8 8 8 8 7 7
12 12 12 12 12 11 11 11 11 11 11 11 11 11 11 11 11 10 10 10 10 10 10 10 10 10 9 9 9 9 9 9 8 8 8 8 8 8 7 7 7 7 7 7
11 11 11 11 11 11 11 11 11 11 11 11 11 10 10 10 10 10 10 10 9 9 9 9 9 9 9 9 9 9 8 8 8 8 8 8 7 7 7 7 7 7 7 7
Wind_Speed
3 2 2 2 1 2 4 6 7 6 6 6 4 4 3 2 2 2 2 3 4 4 3 2 2 2 3 3 3 3 4 3 4 3 2 2 2 2 2 2 3 3 2 2
0 1 1 0 2 0 2 2 3 2 4 4 2 0 1 1 1 3 3 3 3 3 3 3 3 3 3 3 3 4 4 4 4 2 2 2 2 2 2 2 2 2 3 3
2 3 2 2 3 2 1 1 3 3 5 2 1 2 3 3 3 4 4 2 3 4 4 4 4 3 4 3 3 3 3 3 3 3 3 3 3 2 3 3 3 3 3 3
2 2 3 6 2 2 2 1 1 2 2 2 4 4 3 3 4 4 3 3 2 3 3 3 3 2 2 2 3 2 2 2 2 3 3 3 3 3 3 3 3 3 3 3
4 3 3 3 1 1 2 2 1 1 1 1 2 3 2 1 2 3 4 3 3 3 3 3 3 2 2 2 2 2 3 3 4 3 3 3 3 3 3 2 2 2 2 3
4 4 6 6 3 1 3 2 2 1 1 1 3 2 5 4 3 3 2 1 2 2 2 2 2 3 3 2 2 3 3 4 3 3 3 3 3 3 2 2 2 2 2 2
4 4 6 4 4 2 3 5 3 2 2 2 3 4 5 4 4 2 1 1 1 2 1 2 2 3 3 2 3 4 3 2 2 2 2 3 2 2 2 2 1 1 1 2
4 3 6 3 2 3 5 3 1 1 2 2 3 2 3 3 3 1 1 0 1 1 1 1 2 3 3 3 4 2 1 1 1 1 2 1 2 2 1 2 1 1 2 2
6 6 4 2 3 3 2 2 2 2 2 2 0 2 3 3 3 2 1 0 1 1 1 1 1 3 4 4 2 2 1 1 1 1 1 1 2 2 1 1 1 2 2 3
1 3 3 3 2 1 1 1 2 1 1 1 1 1 2 2 2 2 1 1 0 1 1 1 1 2 4 3 2 2 2 2 1 1 1 1 1 1 1 2 2 2 2 3
2 4 3 3 3 2 0 1 1 1 0 2 1 1 2 2 2 2 1 1 1 2 2 2 2 2 2 2 2 2 2 2 1 1 1 1 2 2 3 3 4 3 3 3
6 7 5 6 5 2 1 1 1 0 2 1 1 2 2 3 2 2 2 2 2 2 2 2 2 2 2 2 3 3 3 2 2 2 2 2 2 2 2 3 3 4 4 4
5 4 4 4 3 3 2 2 2 1 2 1 2 2 2 3 2 2 1 1 2 2 2 2 1 2 2 1 2 3 3 3 3 3 2 2 2 2 2 3 2 2 3 4
4 2 2 3 3 3 2 1 1 1 1 1 1 2 1 2 2 2 2 2 2 1 1 1 1 3 3 1 2 3 3 4 3 3 3 3 3 3 2 2 2 3 3 2
4 4 5 3 2 1 1 1 0 1 1 2 1 2 2 2 3 4 3 2 0 1 1 1 2 4 3 1 1 2 3 2 2 2 2 2 2 2 2 2 2 2 2 3
2 1 1 2 2 2 1 2 2 3 3 3 2 2 2 2 2 3 2 1 1 2 3 3 4 4 2 1 1 2 2 2 2 1 1 2 1 2 2 2 2 2 2 2
2 2 2 3 3 3 3 3 3 3 3 3 3 3 1 1 1 2 3 2 2 3 3 3 4 4 2 1 1 1 1 1 1 1 2 2 2 2 2 2 2 2 2 2
4 5 5 6 5 4 4 3 3 3 3 4 2 1 1 1 2 3 3 2 2 2 3 3 3 2 1 1 1 1 1 1 1 2 2 2 2 2 2 2 2 2 2 1
3 3 3 3 4 4 4 4 3 3 3 2 2 2 2 2 2 2 1 1 2 3 4 4 3 1 1 1 0 0 1 1 1 1 2 2 2 1 2 2 2 2 2 1
2 2 1 2 2 2 3 2 2 2 2 2 1 0 1 2 1 1 1 1 2 3 3 2 1 1 1 1 0 0 1 1 1 1 1 1 1 1 1 1 1 1 1 2
1 1 1 1 1 1 2 2 1 1 1 1 2 2 1 1 1 0 0 2 3 3 1 1 0 1 1 0 0 0 1 1 1 1 1 1 1 1 1 1 2 2 2 2
1 1 1 0 1 1 1 1 1 1 0 0 1 1 1 0 1 1 1 2 3 3 1 1 1 1 1 1 0 0 0 1 1 1 1 1 1 1 2 2 2 2 2 2
1 1 1 1 1 1 1 1 0 1 0 1 1 1 2 1 1 0 2 2 1 2 1 1 1 2 2 1 1 0 0 1 1 1 2 1 1 1 2 2 2 2 2 3
1 1 1 1 1 1 1 2 1 0 0 1 1 1 1 1 1 1 1 2 2 2 1 2 2 2 2 1 1 1 1 1 1 2 1 1 1 1 1 1 2 2 2 3
1 1 1 2 1 0 1 1 1 1 1 2 2 1 0 1 1 1 1 1 2 2 2 2 2 2 2 1 1 1 1 1 1 1 1 1 1 1 1 1 2 2 2 2
0 0 0 1 1 2 1 1 0 0 1 0 1 1 1 1 1 0 1 1 2 2 1 1 2 2 1 1 1 1 1 1 2 1 1 1 1 2 2 3 3 2 3 3
1 1 1 1 1 1 1 1 1 1 1 2 1 1 0 0 0 1 1 1 1 1 1 2 2 2 2 1 1 1 1 1 1 1 1 1 2 2 3 3 2 2 3 3
Wind_Direction
218 229 173 201 226 162 173 188 187 220 223 253 255 255 253 242 218 203 189 181 188 189 183 177 178 177 177 187 185 176 168 197 229 234 230 225 230 232 231 225 229 231 233 249
342 311 153 129 342 185 195 188 193 206 252 267 260 285 305 267 214 214 217 208 199 188 178 186 197 200 185 191 197 179 182 202 220 225 228 227 230 229 230 241 244 237 238 239
226 297 54 288 270 217 191 206 171 209 248 276 290 258 247 246 240 232 229 221 206 205 202 205 209 205 196 203 193 192 200 207 211 220 230 234 230 228 236 242 239 242 244 241
131 90 213 243 275 162 153 191 206 222 264 243 249 258 250 224 228 248 242 214 206 198 194 200 202 206 197 187 179 178 202 224 223 225 231 232 218 227 239 243 245 249 246 246
122 157 264 287 270 175 175 278 281 234 304 342 3 10 324 280 256 254 249 224 199 193 192 190 184 176 153 173 190 194 212 231 229 220 224 230 228 233 235 236 254 256 246 239
126 155 219 236 281 271 125 288 298 252 280 323 58 8 286 308 304 289 277 230 191 171 150 168 191 153 148 192 200 222 230 234 228 214 212 221 227 231 228 223 241 243 247 243
148 196 250 262 300 63 143 251 282 234 226 199 207 229 273 302 309 289 257 229 174 141 147 209 189 142 157 189 226 236 233 229 219 214 217 220 220 221 221 217 224 241 258 276
146 182 248 280 88 155 216 250 247 220 218 216 250 301 321 331 331 329 339 62 122 135 205 230 166 154 183 219 237 228 200 199 218 240 246 229 200 213 220 209 216 257 271 289
187 208 245 265 210 226 186 201 237 217 250 205 259 319 329 337 341 328 282 230 171 161 227 265 199 179 208 237 217 175 170 201 221 252 284 255 201 207 219 215 225 255 260 271
237 268 277 281 280 275 174 199 249 233 228 184 206 269 321 325 323 324 303 273 215 150 187 268 246 204 220 234 200 169 189 220 214 216 303 308 257 220 212 223 232 247 260 273
251 270 309 305 267 252 334 54 47 19 252 186 167 262 259 269 276 284 271 257 235 206 228 254 252 237 232 215 183 179 194 212 221 230 238 267 273 252 236 239 227 225 240 246
221 224 204 240 250 239 183 203 213 359 345 335 197 240 264 262 248 247 252 251 251 237 234 249 247 256 248 213 195 193 209 218 219 227 245 249 254 300 298 265 269 251 241 239
224 228 219 246 251 240 210 222 241 217 218 268 279 262 271 279 281 285 285 268 250 251 247 244 258 277 274 234 209 212 227 232 228 227 233 244 246 249 286 327 333 309 282 264
221 192 237 243 242 254 242 244 297 331 301 244 244 259 263 285 293 284 274 264 249 232 243 243 264 279 276 248 221 231 239 240 236 231 228 232 240 245 243 250 295 316 320 302
255 222 218 232 244 242 210 161 140 281 286 289 246 234 239 253 272 277 272 268 206 222 263 268 280 286 289 253 222 239 243 242 233 232 242 245 249 252 245 238 245 273 306 336
258 268 198 206 229 234 205 190 212 253 260 258 254 257 257 252 269 285 282 256 214 237 253 265 273 278 282 253 237 248 241 236 230 230 243 250 252 255 257 254 257 267 280 292
179 241 226 228 233 233 233 232 228 244 263 263 255 264 278 297 301 297 295 277 247 249 250 248 261 275 274 249 227 234 233 226 220 244 248 243 239 245 251 249 249 260 275 272
213 223 222 217 221 233 244 246 243 244 252 259 254 251 254 263 274 279 285 299 310 306 285 268 266 267 257 244 227 233 236 236 227 238 247 241 240 241 242 246 244 244 269 292
248 242 243 240 227 221 227 237 241 247 252 241 225 254 267 267 265 271 282 296 291 289 295 294 284 278 271 260 264 205 235 258 266 256 246 229 230 240 241 243 247 248 248 263
309 282 265 270 254 229 223 235 246 261 251 199 166 179 332 323 316 292 282 287 276 268 280 296 315 327 294 268 307 191 221 229 246 272 274 247 238 251 249 252 262 271 275 271
285 299 309 279 267 251 234 225 208 235 241 173 169 198 236 286 300 244 257 313 308 303 290 269 294 299 287 276 7 274 248 230 230 259 274 274 269 262 258 263 267 274 280 284
280 305 322 273 190 270 280 259 162 148 117 347 190 186 172 319 342 349 306 268 288 316 335 340 334 295 294 308 80 196 253 245 253 264 270 265 256 253 256 264 272 281 283 282
259 244 215 183 174 213 303 329 44 124 189 257 228 201 193 224 226 200 317 319 319 338 360 348 341 342 346 9 22 31 334 291 275 267 266 267 264 259 261 274 283 286 288 289
225 176 171 136 98 78 351 320 335 339 266 287 279 225 183 166 337 308 249 313 335 344 359 351 1 3 12 23 20 353 336 319 303 292 288 291 291 286 281 282 292 298 296 298
129 126 113 102 100 224 245 283 356 33 37 15 355 357 6 174 191 263 346 7 20 36 27 7 9 15 31 35 25 1 335 324 317 315 317 313 318 320 315 306 299 298 300 302
81 144 213 221 223 226 225 207 203 218 131 67 348 345 12 37 94 71 47 42 42 38 22 4 12 21 22 23 21 9 2 12 16 5 346 343 342 334 319 310 304 302 302 301
28 12 6 348 318 232 193 186 201 234 208 182 227 295 322 78 82 75 68 54 37 16 2 6 14 16 11 9 10 22 30 27 18 359 343 337 326 315 310 308 311 312 312 308
Height
1495 1492 1493 1494 1494 1495 1499 1502 1507 1503 1502 1493 1490 1489 1488 1487 1487 1487 1487 1488 1489 1490 1491 1493 1494 1495 1497 1498 1499 1500 1500 1502 1502 1502 1502 1502 1502 1502 1502 1502 1501 1501 1500 1499
1496 1492 1492 1495 1493 1493 1494 1496 1497 1497 1496 1488 1487 1487 1487 1487 1486 1486 1486 1486 1488 1489 1490 1491 1493 1494 1495 1495 1496 1497 1498 1498 1499 1499 1499 1499 1499 1499 1499 1498 1498 1497 1496 1495
1505 1497 1494 1503 1495 1493 1494 1492 1494 1497 1493 1488 1487 1486 1486 1486 1486 1485 1485 1486 1487 1488 1489 1490 1491 1493 1493 1494 1495 1495 1495 1495 1495 1496 1496 1496 1496 1496 1496 1495 1495 1494 1493 1491
1509 1504 1512 1501 1488 1489 1491 1491 1490 1489 1488 1487 1486 1485 1485 1485 1485 1484 1484 1485 1486 1487 1488 1489 1490 1491 1492 1493 1493 1493 1493 1493 1493 1493 1493 1493 1493 1492 1492 1491 1491 1490 1488 1488
1513 1513 1507 1496 1489 1489 1491 1492 1488 1488 1487 1486 1485 1484 1484 1484 1484 1484 1484 1484 1485 1486 1486 1487 1487 1488 1489 1490 1490 1490 1490 1491 1491 1491 1490 1490 1489 1489 1488 1488 1487 1486 1485 1484
1511 1511 1513 1498 1486 1484 1489 1495 1488 1487 1487 1486 1485 1489 1486 1483 1483 1482 1482 1483 1483 1484 1485 1485 1485 1486 1486 1487 1487 1487 1488 1488 1489 1488 1488 1487 1486 1486 1485 1484 1484 1483 1482 1481
1508 1508 1502 1489 1485 1485 1499 1496 1486 1485 1485 1485 1485 1486 1484 1482 1481 1481 1481 1482 1482 1483 1483 1483 1483 1484 1484 1484 1485 1485 1486 1486 1485 1485 1484 1484 1483 1482 1482 1481 1480 1479 1478 1478
1508 1508 1504 1486 1485 1489 1490 1485 1484 1484 1484 1484 1484 1483 1482 1481 1480 1480 1480 1480 1480 1481 1481 1482 1482 1481 1482 1482 1483 1483 1483 1483 1482 1482 1481 1480 1480 1479 1479 1478 1477 1476 1475 1474
1496 1496 1487 1484 1484 1484 1483 1484 1483 1483 1483 1483 1482 1482 1481 1480 1479 1479 1479 1479 1479 1479 1479 1479 1479 1480 1480 1480 1480 1480 1480 1480 1479 1479 1478 1477 1476 1475 1475 1474 1473 1472 1472 1471
1491 1487 1484 1483 1482 1482 1482 1482 1482 1482 1482 1482 1481 1480 1480 1479 1479 1478 1478 1478 1478 1477 1477 1476 1477 1477 1478 1479 1478 1477 1477 1476 1476 1475 1475 1474 1473 1472 1471 1471 1470 1470 1469 1468
1490 1485 1483 1481 1481 1481 1481 1481 1481 1481 1481 1481 1480 1479 1479 1478 1477 1477 1476 1476 1476 1475 1474 1474 1475 1474 1475 1475 1475 1474 1474 1473 1473 1472 1471 1470 1470 1469 1469 1468 1468 1467 1466 1466
1487 1481 1482 1480 1480 1480 1479 1479 1480 1480 1479 1479 1479 1478 1477 1476 1475 1475 1475 1474 1474 1473 1472 1472 1472 1472 1471 1471 1471 1471 1470 1469 1469 1469 1468 1467 1466 1466 1466 1465 1465 1464 1463 1462
1479 1478 1479 1478 1478 1478 1478 1478 1478 1478 1478 1477 1477 1477 1476 1475 1474 1473 1473 1472 1471 1471 1470 1470 1470 1470 1469 1469 1468 1468 1467 1466 1466 1466 1465 1464 1463 1463 1462 1462 1461 1461 1460 1459
1477 1477 1477 1477 1477 1477 1477 1477 1477 1477 1477 1476 1476 1475 1475 1474 1472 1471 1471 1470 1470 1469 1468 1468 1467 1467 1466 1465 1465 1465 1464 1463 1463 1462 1462 1461 1460 1460 1459 1458 1458 1457 1457 1456
1475 1474 1474 1474 1475 1475 1475 1475 1475 1475 1475 1475 1474 1473 1473 1472 1471 1470 1469 1469 1468 1468 1467 1466 1465 1464 1463 1462 1462 1462 1461 1460 1459 1459 1459 1458 1458 1457 1456 1456 1455 1454 1453 1453
1472 1472 1472 1472 1472 1472 1473 1472 1472 1472 1472 1472 1472 1471 1471 1470 1469 1468 1468 1467 1466 1465 1464 1463 1462 1462 1461 1460 1459 1459 1458 1458 1457 1456 1455 1455 1455 1454 1453 1453 1452 1451 1450 1450
1469 1469 1470 1470 1470 1470 1470 1471 1470 1470 1470 1470 1470 1469 1468 1467 1466 1465 1465 1465 1464 1463 1462 1461 1460 1460 1458 1457 1457 1456 1455 1455 1455 1454 1453 1452 1452 1451 1451 1450 1449 1448 1448 1448
1467 1467 1468 1468 1467 1468 1468 1468 1468 1468 1468 1468 1468 1467 1466 1465 1464 1464 1463 1463 1462 1461 1460 1459 1458 1457 1456 1455 1454 1454 1453 1452 1452 1451 1451 1450 1449 1449 1448 1448 1447 1446 1446 1445
1465 1465 1465 1465 1465 1466 1466 1466 1466 1466 1466 1466 1466 1465 1464 1464 1463 1463 1462 1461 1460 1459 1458 1457 1456 1455 1454 1453 1453 1452 1451 1450 1450 1449 1448 1448 1447 1447 1446 1445 1445 1444 1443 1443
1462 1462 1462 1462 1462 1463 1463 1463 1464 1464 1464 1464 1463 1463 1462 1462 1461 1461 1460 1459 1458 1458 1457 1456 1454 1453 1452 1451 1451 1450 1450 1449 1448 1447 1447 1446 1445 1445 1444 1444 1443 1442 1441 1441
1460 1460 1460 1460 1460 1461 1461 1461 1461 1461 1462 1462 1462 1461 1461 1461 1460 1459 1458 1457 1457 1456 1455 1454 1453 1452 1451 1450 1450 1449 1448 1448 1447 1446 1445 1444 1444 1443 1442 1442 1441 1440 1439 1439
1458 1458 1458 1458 1458 1459 1459 1459 1460 1460 1460 1460 1460 1460 1460 1459 1459 1458 1457 1457 1455 1454 1453 1452 1451 1450 1450 1449 1449 1448 1447 1447 1446 1445 1444 1443 1442 1441 1441 1440 1439 1438 1437 1436
1457 1457 1457 1457 1457 1457 1458 1458 1459 1459 1459 1459 1459 1459 1459 1458 1458 1457 1456 1455 1454 1453 1452 1451 1450 1449 1449 1448 1447 1447 1446 1445 1444 1444 1443 1442 1441 1440 1439 1438 1437 1436 1435 1434
1455 1455 1456 1456 1456 1457 1457 1457 1458 1458 1458 1458 1458 1458 1458 1457 1457 1456 1455 1454 1453 1452 1451 1450 1449 1449 1448 1447 1446 1445 1445 1444 1443 1442 1441 1441 1440 1438 1437 1436 1435 1434 1432 1431
1454 1454 1455 1455 1456 1456 1456 1456 1456 1456 1456 1456 1457 1457 1457 1456 1456 1455 1454 1453 1453 1452 1451 1450 1449 1448 1447 1446 1445 1444 1443 1442 1442 1441 1440 1439 1438 1436 1435 1434 1432 1431 1430 1428
1454 1454 1454 1455 1455 1455 1455 1455 1455 1455 1455 1455 1455 1455 1455 1455 1455 1454 1453 1453 1452 1451 1450 1449 1448 1447 1446 1445 1444 1443 1442 1441 1441 1439 1438 1437 1436 1434 1433 1432 1430 1429 1427 1426
1454 1454 1454 1454 1454 1454 1454 1454 1454 1454 1454 1454 1454 1454 1454 1454 1454 1453 1452 1451 1451 1450 1449 1448 1447 1447 1446 1445 1444 1443 1442 1441 1440 1438 1437 1436 1434 1433 1431 1430 1428 1427 1425 1423